Weather History for KMFI - October, 2012

Change the Weather History Date:

Friday, October 19, 2012

  Actual Average Record
Temperature  
Mean Temperature 44 °F -  
Max Temperature 51 °F 54 °F 79 °F (2000)
Min Temperature 37 °F 32 °F 15 °F (1972)
Degree Days  
Heating Degree Days 22    
Moisture  
Dew Point 40 °F    
Average Humidity 88    
Maximum Humidity 100    
Minimum Humidity 71    
Precipitation  
Precipitation 0.01 in - - ()
Sea Level Pressure  
Sea Level Pressure 29.52 in    
Wind  
Wind Speed 5 mph (NE)    
Max Wind Speed 10 mph    
Max Gust Speed -    
Visibility 9 miles    
Events Rain    
Averages and records for this station are not official NWS values.
T = Trace of Precipitation, MM = Missing Value Source: NWS Daily Summary

Daily Weather History Graph

Daily Weather History Graph

Search for Another Location

Airport or City:

Trip Planner

Search our weather history database for the weather conditions in past years. The results will help you decide how hot, cold, wet, or windy it might be!

Date:

Astronomy

Oct. 19, 2012 Rise Set
Actual Time 7:21 AM CDT 6:08 PM CDT
Civil Twilight 6:52 AM CDT 6:38 PM CDT
Nautical Twilight 6:18 AM CDT 7:12 PM CDT
Astronomical Twilight 5:44 AM CDT 7:45 PM CDT
Moon 12:13 PM CDT (10/19) 9:38 PM CDT (10/19)
Length of Visible Light 11h 46m
Length of Day
10h 46m
Waxing Crescent, 24% of the Moon is Illuminated
Oct 19
Waxing Crescent
Oct 21
First Quarter
Oct 29
Full
Nov 6
Last Quarter
Nov 13
New

Hourly Weather History & Observations

Time (CDT) Temp. Windchill Dew Point Humidity Pressure Visibility Wind Dir Wind Speed Gust Speed Precip Events Conditions
12:05 AM 42.8 °F 41.1 °F 41.0 °F 93% 29.40 in 10.0 mi ESE 3.5 mph - N/A   Overcast
12:54 AM 42.1 °F 40.2 °F 41.0 °F 96% 29.42 in 10.0 mi East 3.5 mph - 0.00 in Rain Light Rain
1:05 AM 42.8 °F 39.3 °F 39.2 °F 87% 29.40 in 9.0 mi East 5.8 mph - 0.00 in Rain Light Rain
1:19 AM 41.0 °F 37.1 °F 41.0 °F 100% 29.39 in 8.0 mi East 5.8 mph - 0.00 in Rain Light Rain
1:30 AM 41.0 °F 38.0 °F 41.0 °F 100% 29.40 in 7.0 mi ESE 4.6 mph - 0.00 in   Overcast
1:54 AM 41.0 °F 39.0 °F 39.9 °F 96% 29.43 in 8.0 mi East 3.5 mph - 0.00 in   Overcast
2:36 AM 42.8 °F 40.1 °F 41.0 °F 93% 29.42 in 7.0 mi ENE 4.6 mph - N/A   Overcast
2:54 AM 42.1 °F 40.2 °F 39.9 °F 92% 29.44 in 10.0 mi East 3.5 mph - N/A   Overcast
2:57 AM 42.8 °F 41.1 °F 41.0 °F 93% 29.42 in 9.0 mi East 3.5 mph - N/A   Overcast
3:15 AM 42.8 °F 38.6 °F 39.2 °F 87% 29.43 in 10.0 mi ENE 6.9 mph - N/A   Overcast
3:42 AM 41.0 °F 37.1 °F 39.2 °F 93% 29.43 in 10.0 mi East 5.8 mph - N/A   Overcast
3:49 AM 41.0 °F 36.4 °F 39.2 °F 93% 29.43 in 9.0 mi East 6.9 mph - N/A   Overcast
3:54 AM 41.0 °F 37.1 °F 39.9 °F 96% 29.46 in 9.0 mi East 5.8 mph - N/A   Overcast
4:01 AM 41.0 °F 37.1 °F 39.2 °F 93% 29.44 in 10.0 mi ENE 5.8 mph - N/A   Overcast
4:49 AM 41.0 °F 39.0 °F 39.2 °F 93% 29.44 in 9.0 mi ENE 3.5 mph - N/A   Overcast
4:54 AM 41.0 °F 38.0 °F 39.0 °F 93% 29.47 in 9.0 mi NE 4.6 mph - N/A   Overcast
5:11 AM 41.0 °F 39.0 °F 39.2 °F 93% 29.45 in 2.5 mi NNE 3.5 mph - N/A   Overcast
5:23 AM 41.0 °F 38.0 °F 39.2 °F 93% 29.45 in 3.0 mi NE 4.6 mph - N/A   Overcast
5:54 AM 41.0 °F 37.1 °F 39.9 °F 96% 29.48 in 6.0 mi ENE 5.8 mph - N/A   Overcast
6:02 AM 41.0 °F 39.0 °F 39.2 °F 93% 29.46 in 8.0 mi ENE 3.5 mph - N/A   Overcast
6:11 AM 41.0 °F 37.1 °F 39.2 °F 93% 29.47 in 9.0 mi NE 5.8 mph - N/A   Overcast
6:27 AM 41.0 °F 38.0 °F 39.2 °F 93% 29.47 in 5.0 mi NNE 4.6 mph - N/A   Overcast
6:54 AM 41.0 °F 38.0 °F 39.9 °F 96% 29.51 in 9.0 mi NE 4.6 mph - N/A   Overcast
7:15 AM 42.8 °F 40.1 °F 39.2 °F 87% 29.49 in 9.0 mi NE 4.6 mph - N/A   Overcast
7:54 AM 41.0 °F 36.4 °F 39.9 °F 96% 29.52 in 9.0 mi NNE 6.9 mph - N/A   Overcast
8:13 AM 42.8 °F 38.6 °F 39.2 °F 87% 29.50 in 9.0 mi NNE 6.9 mph - N/A   Overcast
8:54 AM 42.1 °F 37.7 °F 39.9 °F 92% 29.54 in 7.0 mi NE 6.9 mph - 0.00 in Rain Light Rain
8:59 AM 42.8 °F 39.3 °F 39.2 °F 87% 29.51 in 8.0 mi ENE 5.8 mph - 0.00 in   Overcast
9:54 AM 43.0 °F 37.7 °F 41.0 °F 93% 29.55 in 10.0 mi NE 9.2 mph - 0.00 in   Overcast
10:43 AM 44.6 °F 39.2 °F 39.2 °F 81% 29.53 in 10.0 mi ENE 10.4 mph - N/A   Overcast
10:54 AM 45.0 °F 40.1 °F 39.9 °F 82% 29.56 in 10.0 mi East 9.2 mph - N/A   Overcast
11:04 AM 44.6 °F 40.2 °F 39.2 °F 81% 29.54 in 10.0 mi NE 8.1 mph - N/A   Overcast
11:17 AM 44.6 °F 40.2 °F 39.2 °F 81% 29.54 in 10.0 mi NE 8.1 mph - N/A   Overcast
11:28 AM 46.4 °F 42.9 °F 39.2 °F 76% 29.54 in 10.0 mi NE 6.9 mph - N/A   Overcast
11:54 AM 46.0 °F 42.5 °F 39.0 °F 76% 29.57 in 10.0 mi ENE 6.9 mph - N/A   Overcast
12:18 PM 46.4 °F 44.3 °F 39.2 °F 76% 29.55 in 10.0 mi NE 4.6 mph - N/A   Overcast
12:45 PM 44.6 °F 42.2 °F 39.2 °F 81% 29.56 in 5.0 mi NE 4.6 mph - 0.01 in Rain Light Rain
12:54 PM 45.0 °F 43.5 °F 41.0 °F 86% 29.58 in 10.0 mi ENE 3.5 mph - 0.01 in Rain Light Rain
1:11 PM 44.6 °F 41.4 °F 41.0 °F 87% 29.56 in 7.0 mi NNE 5.8 mph - 0.00 in Rain Light Rain
1:20 PM 46.4 °F 44.3 °F 39.2 °F 76% 29.56 in 10.0 mi NNE 4.6 mph - 0.00 in Rain Light Rain
1:54 PM 46.9 °F - 39.0 °F 74% 29.58 in 10.0 mi NNE 5.8 mph - 0.00 in Rain Light Rain
2:54 PM 48.0 °F - 39.0 °F 71% 29.58 in 10.0 mi NE 5.8 mph - 0.00 in   Mostly Cloudy
3:54 PM 48.0 °F - 39.9 °F 74% 29.60 in 10.0 mi NNE 5.8 mph - 0.00 in   Mostly Cloudy
4:54 PM 45.0 °F 42.6 °F 39.9 °F 82% 29.62 in 10.0 mi NNW 4.6 mph - N/A   Mostly Cloudy
5:54 PM 44.1 °F 40.8 °F 39.9 °F 85% 29.64 in 10.0 mi WNW 5.8 mph - N/A   Overcast
6:54 PM 41.0 °F 37.1 °F 39.0 °F 93% 29.66 in 10.0 mi NW 5.8 mph - N/A   Mostly Cloudy
7:54 PM 44.1 °F 40.8 °F 41.0 °F 89% 29.67 in 10.0 mi NNW 5.8 mph - 0.00 in Rain Light Rain
8:54 PM 43.0 °F 40.3 °F 41.0 °F 93% 29.68 in 10.0 mi NNW 4.6 mph - 0.00 in   Overcast
9:54 PM 44.1 °F 40.1 °F 39.0 °F 82% 29.68 in 10.0 mi North 6.9 mph - N/A   Scattered Clouds
10:54 PM 39.0 °F 34.8 °F 37.0 °F 93% 29.69 in 10.0 mi NNW 5.8 mph - N/A   Clear
11:54 PM 37.9 °F 32.7 °F 36.0 °F 93% 29.69 in 10.0 mi NNW 6.9 mph - N/A   Clear